THY3 LTFM-KJFK

Flight info

Callsign THY3
Flight time N/A
Altitude 38000
Route TUDBU Q26 ETUBA DCT DEGET DCT PATAK DCT ODNEM DCT ELMEK DCT VEXIL DCT KATCE DCT RKN DCT MIMVA DCT OTBED L60 PENIL M144 BAGSO DCT ULTAG DCT NEBIN/M084F390 NATB BUDAR/N0480F400 DCT ALLEX DCT PLYMM PARCH4
Aircraft A359/H-SDE2E3GHIJ3J4J5LM1ORWXY/LB1D1

Departure

Time 2026-05-01 08:00
Airport İstanbul Airport (LTFM)

Arrival

Time N/A
Airport John F. Kennedy International Airport (KJFK)
Time Latitude Longitude Altitude Speed Heading
2026-05-01 07:49 41.26667 28.74120 319 ft 0 kts 89°
2026-05-01 07:50 41.26665 28.74084 318 ft 2 kts 81°
2026-05-01 07:50 41.26661 28.74063 316 ft 2 kts 71°
2026-05-01 07:51 41.26655 28.74043 316 ft 2 kts 56°
2026-05-01 07:51 41.26644 28.74027 316 ft 2 kts 31°
2026-05-01 07:51 41.26628 28.74019 316 ft 2 kts
2026-05-01 07:52 41.26616 28.74018 317 ft 0 kts
2026-05-01 07:53 41.26620 28.74018 319 ft 1 kts
2026-05-01 07:53 41.26641 28.74018 319 ft 5 kts
2026-05-01 07:54 41.26808 28.74016 319 ft 18 kts 359°
2026-05-01 07:55 41.27051 28.73902 317 ft 11 kts 266°
2026-05-01 07:55 41.27046 28.73569 317 ft 24 kts 269°
2026-05-01 07:56 41.26986 28.73103 315 ft 5 kts 181°
2026-05-01 07:56 41.26912 28.73102 315 ft 7 kts 180°
2026-05-01 07:57 41.26845 28.73102 315 ft 12 kts 179°
2026-05-01 07:57 41.26616 28.73109 318 ft 19 kts 179°
2026-05-01 07:58 41.26354 28.73113 319 ft 15 kts 190°
2026-05-01 07:58 41.26304 28.72960 322 ft 8 kts 267°
2026-05-01 07:59 41.26302 28.72859 327 ft 4 kts 270°
2026-05-01 07:59 41.26343 28.72775 328 ft 4 kts 355°
2026-05-01 08:00 41.29132 28.72715 1710 ft 179 kts
2026-05-01 08:01 41.33294 28.72645 4292 ft 221 kts
2026-05-01 08:01 41.34860 28.72613 4933 ft 228 kts
2026-05-01 08:01 41.36461 28.72575 5681 ft 231 kts
2026-05-01 08:02 41.39688 28.71687 6819 ft 250 kts 339°
2026-05-01 08:02 41.41275 28.70665 7350 ft 257 kts 338°
2026-05-01 08:03 41.44554 28.68538 8513 ft 267 kts 336°
2026-05-01 08:03 41.46246 28.67445 9085 ft 274 kts 335°
2026-05-01 08:03 41.49722 28.65210 10241 ft 286 kts 334°
2026-05-01 08:04 41.53498 28.62785 10790 ft 316 kts 334°
2026-05-01 08:04 41.57512 28.59937 11559 ft 333 kts 322°
2026-05-01 08:05 41.60770 28.55528 12764 ft 334 kts 310°
2026-05-01 08:05 41.62329 28.53219 13379 ft 335 kts 310°
2026-05-01 08:05 41.63874 28.50936 13960 ft 336 kts 310°
2026-05-01 08:06 41.66952 28.46186 14979 ft 339 kts 302°
2026-05-01 08:06 41.69020 28.40531 15995 ft 341 kts 291°
2026-05-01 08:07 41.70914 28.34667 16985 ft 345 kts 291°
2026-05-01 08:07 41.72842 28.28735 17943 ft 350 kts 291°
2026-05-01 08:08 41.73818 28.25736 18419 ft 352 kts 291°
2026-05-01 08:08 41.75788 28.19677 19212 ft 358 kts 291°
2026-05-01 08:09 41.77786 28.13518 20036 ft 362 kts 291°
2026-05-01 08:09 41.78799 28.10418 20489 ft 364 kts 291°
2026-05-01 08:09 41.80031 28.07437 20914 ft 369 kts 301°
2026-05-01 08:10 41.83096 28.01898 21697 ft 375 kts 303°
2026-05-01 08:10 41.86289 27.96248 22468 ft 379 kts 303°
2026-05-01 08:11 41.89463 27.90596 23237 ft 383 kts 303°
2026-05-01 08:11 41.92688 27.84832 23929 ft 388 kts 303°
2026-05-01 08:12 41.95956 27.78998 24561 ft 393 kts 303°
2026-05-01 08:12 41.97744 27.76189 24865 ft 397 kts 308°
2026-05-01 08:12 42.01593 27.70805 25463 ft 402 kts 310°
2026-05-01 08:13 42.03564 27.68151 25772 ft 404 kts 311°
2026-05-01 08:13 42.05534 27.65503 26083 ft 405 kts 311°
2026-05-01 08:13 42.09532 27.60086 26764 ft 409 kts 311°
2026-05-01 08:14 42.11536 27.57345 27113 ft 411 kts 310°
2026-05-01 08:14 42.13538 27.54596 27477 ft 414 kts 310°
2026-05-01 08:14 42.15561 27.51812 27825 ft 416 kts 311°
2026-05-01 08:14 42.17588 27.49018 28222 ft 418 kts 311°
2026-05-01 08:15 42.19625 27.46206 28630 ft 420 kts 311°
2026-05-01 08:15 42.23736 27.40526 29359 ft 425 kts 311°
2026-05-01 08:15 42.25807 27.37662 29755 ft 428 kts 311°
2026-05-01 08:16 42.27900 27.34765 30155 ft 430 kts 311°
2026-05-01 08:16 42.29997 27.31859 30497 ft 433 kts 311°
2026-05-01 08:16 42.32104 27.28936 30838 ft 435 kts 311°
2026-05-01 08:16 42.34221 27.25999 31145 ft 438 kts 311°
2026-05-01 08:17 42.36328 27.23070 31428 ft 440 kts 311°
2026-05-01 08:17 42.38474 27.20084 31746 ft 443 kts 311°
2026-05-01 08:17 42.40625 27.17087 32042 ft 446 kts 311°
2026-05-01 08:17 42.42637 27.14283 32312 ft 448 kts 311°
2026-05-01 08:18 42.44809 27.11251 32587 ft 451 kts 311°
2026-05-01 08:18 42.49194 27.05121 33112 ft 456 kts 311°
2026-05-01 08:19 42.53629 26.98908 33583 ft 461 kts 311°
2026-05-01 08:19 42.55867 26.95767 33818 ft 463 kts 311°
2026-05-01 08:19 42.58108 26.92619 34025 ft 466 kts 311°
2026-05-01 08:19 42.60366 26.89444 34268 ft 468 kts 311°
2026-05-01 08:20 42.62601 26.86298 34456 ft 470 kts 311°
2026-05-01 08:20 42.64905 26.83050 34656 ft 471 kts 311°
2026-05-01 08:20 42.67180 26.79840 34852 ft 473 kts 311°
2026-05-01 08:20 42.69468 26.76607 35047 ft 474 kts 311°
2026-05-01 08:21 42.71727 26.73414 35339 ft 473 kts 311°
2026-05-01 08:21 42.74001 26.70196 35610 ft 473 kts 311°
2026-05-01 08:21 42.76281 26.66965 35873 ft 472 kts 311°
2026-05-01 08:21 42.78554 26.63739 36133 ft 472 kts 311°
2026-05-01 08:22 42.80828 26.60509 36381 ft 472 kts 311°
2026-05-01 08:22 42.83111 26.57294 36634 ft 473 kts 313°
2026-05-01 08:22 42.85455 26.54146 36895 ft 473 kts 314°
2026-05-01 08:22 42.87833 26.51038 37105 ft 473 kts 314°
2026-05-01 08:23 42.90220 26.47941 37351 ft 474 kts 314°
2026-05-01 08:23 42.92606 26.44837 37617 ft 473 kts 314°
2026-05-01 08:23 42.94981 26.41727 37835 ft 473 kts 314°
2026-05-01 08:23 42.97353 26.38602 38069 ft 474 kts 314°
2026-05-01 08:24 42.99720 26.35468 38263 ft 474 kts 314°
2026-05-01 08:24 43.04442 26.29188 38303 ft 473 kts 314°
2026-05-01 08:25 43.09156 26.22901 38312 ft 473 kts 314°
2026-05-01 08:25 43.13830 26.16655 38319 ft 473 kts 314°
2026-05-01 08:26 43.18549 26.10336 38328 ft 473 kts 314°
2026-05-01 08:26 43.23235 26.04048 38333 ft 473 kts 314°
2026-05-01 08:27 43.27915 25.97673 38331 ft 472 kts 312°
2026-05-01 08:27 43.32386 25.91078 38333 ft 472 kts 311°
2026-05-01 08:28 43.36803 25.84454 38334 ft 473 kts 311°
2026-05-01 08:28 43.41280 25.77801 38336 ft 474 kts 311°
2026-05-01 08:29 43.45761 25.71176 38335 ft 474 kts 311°
2026-05-01 08:29 43.50259 25.64519 38331 ft 474 kts 311°
2026-05-01 08:30 43.54755 25.57849 38332 ft 474 kts 311°
2026-05-01 08:30 43.59241 25.51174 38331 ft 474 kts 311°
2026-05-01 08:31 43.63698 25.44526 38335 ft 474 kts 311°
2026-05-01 08:31 43.68179 25.37827 38334 ft 474 kts 311°
2026-05-01 08:32 43.72651 25.31125 38335 ft 474 kts 311°
2026-05-01 08:32 43.77122 25.24410 38337 ft 474 kts 311°
2026-05-01 08:33 43.81580 25.17696 38338 ft 474 kts 311°
2026-05-01 08:33 43.86041 25.10964 38340 ft 474 kts 311°
2026-05-01 08:34 43.90495 25.04226 38337 ft 474 kts 311°
2026-05-01 08:34 43.94944 24.97479 38342 ft 474 kts 311°
2026-05-01 08:35 43.99357 24.90771 38339 ft 473 kts 311°
2026-05-01 08:35 44.03799 24.84002 38317 ft 474 kts 311°
2026-05-01 08:36 44.07493 24.78362 38322 ft 473 kts 311°
2026-05-01 08:36 44.11923 24.71581 38338 ft 473 kts 311°
2026-05-01 08:37 44.16357 24.64779 38338 ft 473 kts 311°
2026-05-01 08:37 44.20785 24.57968 38340 ft 473 kts 311°
2026-05-01 08:38 44.25206 24.51154 38335 ft 474 kts 311°
2026-05-01 08:38 44.29593 24.44375 38312 ft 474 kts 311°
2026-05-01 08:39 44.34007 24.37537 38314 ft 474 kts 311°
2026-05-01 08:39 44.38413 24.30695 38337 ft 474 kts 311°
2026-05-01 08:40 44.45037 24.20379 38322 ft 475 kts 312°
2026-05-01 08:40 44.49451 24.13482 38339 ft 475 kts 312°
2026-05-01 08:41 44.53849 24.06594 38335 ft 475 kts 312°
2026-05-01 08:41 44.58206 23.99754 38335 ft 475 kts 312°
2026-05-01 08:42 44.62627 23.92797 38330 ft 475 kts 312°
2026-05-01 08:42 44.67029 23.85850 38322 ft 475 kts 312°
2026-05-01 08:43 44.71418 23.78909 38316 ft 475 kts 312°
2026-05-01 08:43 44.75815 23.71938 38318 ft 475 kts 312°
2026-05-01 08:44 44.80208 23.64954 38319 ft 475 kts 312°
2026-05-01 08:44 44.84558 23.58024 38314 ft 476 kts 312°
2026-05-01 08:45 44.88935 23.51032 38311 ft 476 kts 312°
2026-05-01 08:45 44.93314 23.44019 38308 ft 475 kts 312°
2026-05-01 08:46 44.97683 23.37005 38307 ft 476 kts 312°
2026-05-01 08:46 45.02056 23.29967 38302 ft 476 kts 312°
2026-05-01 08:47 45.06421 23.22924 38299 ft 476 kts 312°
2026-05-01 08:47 45.10778 23.15876 38303 ft 476 kts 312°
2026-05-01 08:48 45.15123 23.08829 38300 ft 477 kts 312°
2026-05-01 08:48 45.19484 23.01740 38300 ft 477 kts 312°
2026-05-01 08:49 45.23844 22.94633 38296 ft 477 kts 312°
2026-05-01 08:49 45.28199 22.87516 38301 ft 478 kts 312°
2026-05-01 08:50 45.32554 22.80382 38300 ft 478 kts 312°
2026-05-01 08:50 45.36884 22.73268 38296 ft 478 kts 313°
2026-05-01 08:51 45.41229 22.66115 38299 ft 478 kts 312°
2026-05-01 08:51 45.45576 22.58939 38302 ft 478 kts 313°
2026-05-01 08:52 45.49924 22.51742 38304 ft 479 kts 313°
2026-05-01 08:52 45.54270 22.44532 38304 ft 479 kts 313°
2026-05-01 08:53 45.58606 22.37317 38311 ft 479 kts 313°
2026-05-01 08:53 45.62941 22.30083 38311 ft 479 kts 313°
2026-05-01 08:54 45.67269 22.22844 38309 ft 479 kts 313°
2026-05-01 08:54 45.71604 22.15576 38316 ft 479 kts 313°
2026-05-01 08:55 45.75898 22.08356 38317 ft 479 kts 313°
2026-05-01 08:55 45.80215 22.01080 38327 ft 479 kts 313°
2026-05-01 08:56 45.84529 21.93788 38317 ft 479 kts 313°
2026-05-01 08:56 45.88836 21.86490 38322 ft 479 kts 313°
2026-05-01 08:57 45.93140 21.79177 38325 ft 479 kts 313°
2026-05-01 08:57 45.97432 21.71866 38329 ft 479 kts 313°
2026-05-01 08:58 46.01661 21.64645 38330 ft 479 kts 313°
2026-05-01 08:58 46.06011 21.57197 38333 ft 479 kts 313°
2026-05-01 08:59 46.10301 21.49832 38340 ft 479 kts 313°
2026-05-01 08:59 46.14558 21.42503 38346 ft 479 kts 313°
2026-05-01 09:00 46.18825 21.35137 38345 ft 479 kts 313°
2026-05-01 09:00 46.23094 21.27747 38348 ft 479 kts 313°
2026-05-01 09:01 46.27357 21.20350 38346 ft 478 kts 313°
2026-05-01 09:01 46.31644 21.12979 38342 ft 477 kts 315°
2026-05-01 09:02 46.36266 21.06124 38344 ft 474 kts 321°
2026-05-01 09:02 46.40960 20.99467 38342 ft 477 kts 315°
2026-05-01 09:03 46.44955 20.91738 38338 ft 481 kts 308°
2026-05-01 09:03 46.48844 20.83834 38338 ft 479 kts 312°
2026-05-01 09:04 46.53028 20.76300 38340 ft 479 kts 313°
2026-05-01 09:04 46.57190 20.68977 38344 ft 478 kts 313°
2026-05-01 09:05 46.61501 20.61364 38345 ft 479 kts 313°
2026-05-01 09:05 46.65722 20.53858 38348 ft 479 kts 313°
2026-05-01 09:06 46.69902 20.46392 38350 ft 479 kts 313°
2026-05-01 09:06 46.74115 20.38847 38349 ft 479 kts 313°
2026-05-01 09:07 46.78323 20.31292 38349 ft 479 kts 313°
2026-05-01 09:07 46.82524 20.23729 38367 ft 479 kts 313°
2026-05-01 09:08 46.86717 20.16159 38368 ft 479 kts 313°
2026-05-01 09:08 46.90901 20.08586 38362 ft 479 kts 313°
2026-05-01 09:09 46.95061 20.01036 38368 ft 479 kts 314°
2026-05-01 09:09 46.99247 19.93416 38370 ft 479 kts 314°
2026-05-01 09:10 47.03427 19.85786 38368 ft 479 kts 314°
2026-05-01 09:10 47.07595 19.78157 38364 ft 480 kts 314°
2026-05-01 09:11 47.11763 19.70509 38369 ft 480 kts 314°
2026-05-01 09:11 47.15908 19.62879 38371 ft 480 kts 314°
2026-05-01 09:12 47.20071 19.55197 38370 ft 480 kts 314°
2026-05-01 09:12 47.24223 19.47513 38369 ft 480 kts 314°
2026-05-01 09:13 47.28377 19.39802 38371 ft 480 kts 314°
2026-05-01 09:13 47.32530 19.32072 38369 ft 480 kts 314°
2026-05-01 09:14 47.36647 19.24389 38373 ft 480 kts 314°
2026-05-01 09:14 47.40772 19.16666 38368 ft 480 kts 314°
2026-05-01 09:15 47.44902 19.08915 38371 ft 479 kts 314°
2026-05-01 09:15 47.49021 19.01159 38365 ft 479 kts 314°
2026-05-01 09:16 47.53122 18.93418 38380 ft 478 kts 314°
2026-05-01 09:17 47.59234 18.81837 38376 ft 477 kts 314°
2026-05-01 09:17 47.65354 18.70198 38376 ft 476 kts 314°
2026-05-01 09:18 47.71436 18.58577 38373 ft 475 kts 314°
2026-05-01 09:19 47.77495 18.46952 38380 ft 474 kts 314°
2026-05-01 09:20 47.83505 18.35372 38382 ft 473 kts 314°
2026-05-01 09:21 47.91521 18.19849 38377 ft 472 kts 314°
2026-05-01 09:21 47.97513 18.08188 38378 ft 471 kts 314°
2026-05-01 09:22 48.05470 17.92623 38378 ft 471 kts 314°
2026-05-01 09:23 48.11390 17.80987 38377 ft 470 kts 314°
2026-05-01 09:24 48.17319 17.69283 38383 ft 470 kts 313°
2026-05-01 09:25 48.25207 17.53635 38390 ft 470 kts 313°
2026-05-01 09:26 48.31099 17.41883 38391 ft 470 kts 313°
2026-05-01 09:26 48.36302 17.31462 38392 ft 470 kts 313°
2026-05-01 09:27 48.42174 17.19651 38389 ft 470 kts 313°
2026-05-01 09:28 48.46087 17.11756 38392 ft 470 kts 313°
2026-05-01 09:28 48.49989 17.03860 38393 ft 470 kts 313°
2026-05-01 09:29 48.55835 16.91983 38389 ft 470 kts 312°
2026-05-01 09:30 48.61669 16.80079 38394 ft 470 kts 312°
2026-05-01 09:30 48.67491 16.68146 38399 ft 469 kts 312°
2026-05-01 09:31 48.71363 16.60183 38407 ft 469 kts 312°
2026-05-01 09:32 48.77139 16.48256 38404 ft 469 kts 312°
2026-05-01 09:32 48.82918 16.36272 38404 ft 469 kts 312°
2026-05-01 09:33 48.86765 16.28266 38405 ft 469 kts 312°
2026-05-01 09:34 48.92528 16.16224 38409 ft 469 kts 311°
2026-05-01 09:34 48.98276 16.04160 38401 ft 469 kts 311°
2026-05-01 09:35 49.04023 15.92045 38395 ft 469 kts 311°
2026-05-01 09:36 49.07809 15.84033 38397 ft 469 kts 311°
2026-05-01 09:36 49.11621 15.75941 38406 ft 469 kts 311°
2026-05-01 09:37 49.15424 15.67846 38400 ft 469 kts 311°
2026-05-01 09:37 49.21121 15.55672 38409 ft 469 kts 311°
2026-05-01 09:38 49.26814 15.43450 38414 ft 469 kts 310°
2026-05-01 09:39 49.32456 15.31281 38412 ft 469 kts 310°
2026-05-01 09:39 49.36227 15.23119 38412 ft 469 kts 310°
2026-05-01 09:40 49.41864 15.10867 38412 ft 469 kts 310°
2026-05-01 09:41 49.45622 15.02670 38413 ft 469 kts 310°
2026-05-01 09:41 49.51256 14.90335 38411 ft 469 kts 310°
2026-05-01 09:42 49.54991 14.82127 38414 ft 469 kts 310°
2026-05-01 09:43 49.62458 14.65633 38414 ft 470 kts 309°
2026-05-01 09:43 49.66192 14.57349 38412 ft 470 kts 309°
2026-05-01 09:44 49.71779 14.44902 38413 ft 470 kts 309°
2026-05-01 09:45 49.75501 14.36581 38420 ft 470 kts 309°
2026-05-01 09:45 49.81068 14.24081 38429 ft 470 kts 309°
2026-05-01 09:46 49.84777 14.15722 38425 ft 470 kts 309°
2026-05-01 09:46 49.88445 14.07429 38426 ft 470 kts 309°
2026-05-01 09:47 49.91905 13.98780 38438 ft 472 kts 304°
2026-05-01 09:47 49.95127 13.89877 38434 ft 472 kts 303°
2026-05-01 09:48 49.98302 13.80950 38432 ft 472 kts 303°
2026-05-01 09:48 50.01474 13.72002 38437 ft 472 kts 303°
2026-05-01 09:49 50.04618 13.63125 38442 ft 471 kts 303°
2026-05-01 09:49 50.07796 13.54128 38440 ft 471 kts 303°
2026-05-01 09:50 50.10922 13.45248 38438 ft 470 kts 302°
2026-05-01 09:50 50.14062 13.36299 38440 ft 470 kts 302°
2026-05-01 09:51 50.17196 13.27334 38432 ft 470 kts 302°
2026-05-01 09:51 50.20317 13.18373 38432 ft 469 kts 302°
2026-05-01 09:52 50.23407 13.09473 38428 ft 469 kts 302°
2026-05-01 09:52 50.26508 13.00505 38429 ft 469 kts 302°
2026-05-01 09:53 50.29608 12.91512 38430 ft 469 kts 302°
2026-05-01 09:53 50.32702 12.82506 38425 ft 468 kts 301°
2026-05-01 09:54 50.35758 12.73573 38431 ft 468 kts 301°
2026-05-01 09:54 50.38822 12.64592 38426 ft 468 kts 301°
2026-05-01 09:55 50.42033 12.55735 38427 ft 466 kts 305°
2026-05-01 09:55 50.45485 12.47145 38427 ft 465 kts 305°
2026-05-01 09:56 50.48924 12.38555 38433 ft 465 kts 305°
2026-05-01 09:56 50.52313 12.29908 38431 ft 464 kts 304°
2026-05-01 09:57 50.55672 12.21236 38432 ft 464 kts 304°
2026-05-01 09:57 50.58999 12.12608 38431 ft 463 kts 304°
2026-05-01 09:58 50.62336 12.03930 38430 ft 463 kts 304°
2026-05-01 09:58 50.65668 11.95242 38435 ft 463 kts 303°
2026-05-01 09:59 50.68992 11.86548 38434 ft 463 kts 303°
2026-05-01 09:59 50.72306 11.77847 38434 ft 462 kts 303°
2026-05-01 10:00 50.75615 11.69130 38437 ft 462 kts 303°
2026-05-01 10:00 50.78890 11.60471 38430 ft 462 kts 303°
2026-05-01 10:01 50.82180 11.51749 38428 ft 462 kts 303°
2026-05-01 10:01 50.85462 11.43021 38434 ft 461 kts 303°
2026-05-01 10:02 50.88736 11.34283 38443 ft 461 kts 303°
2026-05-01 10:02 50.92003 11.25526 38422 ft 461 kts 302°
2026-05-01 10:03 50.95263 11.16764 38419 ft 461 kts 302°
2026-05-01 10:03 50.98517 11.07988 38437 ft 461 kts 302°
2026-05-01 10:04 51.01766 10.99201 38435 ft 461 kts 302°
2026-05-01 10:04 51.05005 10.90404 38439 ft 461 kts 302°
2026-05-01 10:05 51.08237 10.81596 38414 ft 461 kts 302°
2026-05-01 10:05 51.11460 10.72782 38419 ft 460 kts 302°
2026-05-01 10:06 51.14675 10.63962 38430 ft 460 kts 302°
2026-05-01 10:06 51.17860 10.55193 38431 ft 460 kts 302°
2026-05-01 10:07 51.21061 10.46349 38430 ft 460 kts 302°
2026-05-01 10:07 51.24254 10.37489 38428 ft 460 kts 301°
2026-05-01 10:08 51.28234 10.23506 38423 ft 462 kts 295°
2026-05-01 10:09 51.30723 10.14049 38419 ft 462 kts 294°
2026-05-01 10:09 51.33188 10.04623 38419 ft 462 kts 294°
2026-05-01 10:10 51.35664 9.95151 38421 ft 462 kts 294°
2026-05-01 10:10 51.39376 9.80913 38409 ft 462 kts 294°
2026-05-01 10:11 51.41843 9.71408 38404 ft 462 kts 294°
2026-05-01 10:11 51.44300 9.61896 38407 ft 462 kts 294°
2026-05-01 10:12 51.46336 9.53982 38402 ft 462 kts 294°
2026-05-01 10:13 51.50393 9.38130 38400 ft 462 kts 294°
2026-05-01 10:13 51.52417 9.30183 38402 ft 462 kts 294°
2026-05-01 10:14 51.56056 9.15814 38398 ft 462 kts 294°
2026-05-01 10:14 51.58470 9.06239 38404 ft 462 kts 294°
2026-05-01 10:15 51.60860 8.96726 38401 ft 462 kts 294°
2026-05-01 10:15 51.63521 8.87303 38399 ft 461 kts 297°
2026-05-01 10:16 51.66281 8.77970 38400 ft 461 kts 297°
2026-05-01 10:17 51.70420 8.63970 38394 ft 462 kts 297°
2026-05-01 10:17 51.74532 8.49918 38400 ft 462 kts 297°
2026-05-01 10:18 51.78625 8.35828 38390 ft 462 kts 297°
2026-05-01 10:19 51.81347 8.26413 38388 ft 462 kts 297°
2026-05-01 10:19 51.84060 8.16999 38376 ft 462 kts 297°
2026-05-01 10:20 51.88103 8.02890 38372 ft 463 kts 297°
2026-05-01 10:20 51.90802 7.93421 38371 ft 463 kts 297°
2026-05-01 10:21 51.94850 7.79157 38373 ft 464 kts 296°
2026-05-01 10:22 51.98877 7.64881 38373 ft 464 kts 296°
2026-05-01 10:23 52.02899 7.50537 38367 ft 465 kts 296°
2026-05-01 10:23 52.06884 7.36234 38368 ft 466 kts 296°
2026-05-01 10:24 52.12203 7.16997 38360 ft 467 kts 296°
2026-05-01 10:25 52.17507 6.97661 38355 ft 467 kts 296°
2026-05-01 10:26 52.20147 6.87982 38353 ft 468 kts 295°
2026-05-01 10:27 52.25417 6.68527 38345 ft 469 kts 296°
2026-05-01 10:28 52.29339 6.53933 38340 ft 470 kts 295°
2026-05-01 10:28 52.33272 6.39219 38335 ft 471 kts 295°
2026-05-01 10:29 52.37200 6.24424 38330 ft 472 kts 295°
2026-05-01 10:30 52.42395 6.04715 38325 ft 473 kts 295°
2026-05-01 10:31 52.47581 5.84859 38318 ft 474 kts 294°
2026-05-01 10:32 52.51458 5.69887 38319 ft 475 kts 294°
2026-05-01 10:33 52.56584 5.49956 38320 ft 475 kts 294°
2026-05-01 10:34 52.60426 5.34899 38319 ft 476 kts 294°
2026-05-01 10:34 52.62983 5.24824 38317 ft 476 kts 293°
2026-05-01 10:35 52.66755 5.09878 38316 ft 477 kts 293°
2026-05-01 10:35 52.69321 4.99658 38317 ft 477 kts 293°
2026-05-01 10:36 52.73108 4.84469 38299 ft 477 kts 293°
2026-05-01 10:37 52.75623 4.74328 38297 ft 477 kts 292°
2026-05-01 10:37 52.79376 4.59111 38295 ft 477 kts 292°
2026-05-01 10:38 52.81865 4.48958 38296 ft 476 kts 292°
2026-05-01 10:38 52.84344 4.38801 38295 ft 476 kts 292°
2026-05-01 10:39 52.86803 4.28680 38298 ft 477 kts 292°
2026-05-01 10:39 52.89267 4.18489 38295 ft 477 kts 292°
2026-05-01 10:40 52.91728 4.08263 38297 ft 477 kts 291°
2026-05-01 10:40 52.94177 3.98039 38291 ft 478 kts 291°
2026-05-01 10:41 52.96621 3.87789 38292 ft 478 kts 291°
2026-05-01 10:42 53.00275 3.72372 38283 ft 478 kts 291°
2026-05-01 10:42 53.02683 3.62153 38279 ft 479 kts 291°
2026-05-01 10:43 53.05104 3.51827 38271 ft 479 kts 291°
2026-05-01 10:43 53.07501 3.41557 38270 ft 479 kts 290°
2026-05-01 10:44 53.09757 3.31133 38265 ft 479 kts 283°
2026-05-01 10:44 53.10874 3.20234 38267 ft 477 kts 276°
2026-05-01 10:45 53.11644 3.09258 38274 ft 477 kts 275°
2026-05-01 10:45 53.12358 2.98271 38278 ft 477 kts 275°
2026-05-01 10:46 53.13084 2.87278 38275 ft 477 kts 275°
2026-05-01 10:46 53.13816 2.76310 38275 ft 477 kts 275°
2026-05-01 10:47 53.14540 2.65384 38272 ft 477 kts 275°
2026-05-01 10:47 53.15256 2.54394 38271 ft 477 kts 275°
2026-05-01 10:48 53.15961 2.43413 38270 ft 477 kts 274°
2026-05-01 10:48 53.16656 2.32421 38266 ft 477 kts 274°
2026-05-01 10:49 53.17340 2.21438 38263 ft 477 kts 274°
2026-05-01 10:49 53.18015 2.10449 38261 ft 476 kts 274°
2026-05-01 10:50 53.18679 1.99461 38258 ft 476 kts 274°
2026-05-01 10:50 53.19334 1.88449 38253 ft 476 kts 274°
2026-05-01 10:51 53.19976 1.77484 38253 ft 476 kts 273°
2026-05-01 10:51 53.20605 1.66565 38250 ft 475 kts 273°
2026-05-01 10:52 53.21227 1.55590 38244 ft 475 kts 273°
2026-05-01 10:52 53.21838 1.44612 38235 ft 475 kts 273°
2026-05-01 10:53 53.22439 1.33644 38236 ft 474 kts 273°
2026-05-01 10:53 53.23029 1.22701 38229 ft 474 kts 272°
2026-05-01 10:54 53.23611 1.11709 38231 ft 474 kts 272°
2026-05-01 10:54 53.24181 1.00752 38222 ft 473 kts 272°
2026-05-01 10:55 53.24740 0.89812 38220 ft 473 kts 272°
2026-05-01 10:55 53.25286 0.78936 38213 ft 473 kts 272°
2026-05-01 10:56 53.25824 0.67997 38210 ft 473 kts 272°
2026-05-01 10:56 53.26352 0.57043 38204 ft 472 kts 272°
2026-05-01 10:57 53.26870 0.46108 38200 ft 472 kts 272°
2026-05-01 10:57 53.27378 0.35176 38199 ft 472 kts 272°
2026-05-01 10:58 53.27876 0.24238 38188 ft 471 kts 272°
2026-05-01 10:58 53.28364 0.13312 38189 ft 471 kts 271°
2026-05-01 10:59 53.28945 0.02396 38190 ft 472 kts 277°
2026-05-01 10:59 53.29813 -0.06600 38191 ft 473 kts 277°
2026-05-01 11:00 53.31116 -0.19204 38185 ft 472 kts 277°
2026-05-01 11:00 53.32051 -0.28203 38188 ft 472 kts 277°
2026-05-01 11:01 53.33160 -0.39021 38187 ft 472 kts 277°
2026-05-01 11:01 53.34258 -0.49857 38186 ft 472 kts 277°
2026-05-01 11:02 53.35336 -0.60690 38177 ft 472 kts 277°
2026-05-01 11:02 53.36410 -0.71538 38181 ft 472 kts 277°
2026-05-01 11:03 53.37470 -0.82375 38178 ft 472 kts 276°
2026-05-01 11:03 53.38521 -0.93224 38183 ft 472 kts 276°
2026-05-01 11:04 53.39572 -1.04086 38178 ft 472 kts 276°
2026-05-01 11:04 53.40608 -1.14959 38163 ft 472 kts 276°
2026-05-01 11:05 53.41629 -1.25839 38158 ft 473 kts 276°
2026-05-01 11:05 53.42639 -1.36648 38172 ft 473 kts 276°
2026-05-01 11:06 53.43637 -1.47562 38167 ft 473 kts 276°
2026-05-01 11:06 53.44630 -1.58460 38170 ft 473 kts 276°
2026-05-01 11:07 53.46106 -1.74862 38155 ft 473 kts 275°
2026-05-01 11:07 53.47075 -1.85788 38152 ft 473 kts 275°
2026-05-01 11:08 53.48036 -1.96736 38158 ft 474 kts 275°
2026-05-01 11:09 53.49454 -2.13118 38153 ft 474 kts 275°
2026-05-01 11:09 53.50395 -2.24067 38154 ft 475 kts 275°
2026-05-01 11:10 53.51780 -2.40550 38153 ft 475 kts 275°
2026-05-01 11:10 53.52692 -2.51557 38152 ft 475 kts 275°
2026-05-01 11:11 53.53595 -2.62544 38149 ft 474 kts 274°
2026-05-01 11:11 53.54484 -2.73483 38154 ft 474 kts 274°
2026-05-01 11:12 53.55370 -2.84533 38156 ft 473 kts 274°
2026-05-01 11:12 53.56233 -2.95403 38158 ft 473 kts 274°
2026-05-01 11:13 53.57092 -3.06374 38158 ft 471 kts 274°
2026-05-01 11:13 53.57936 -3.17287 38157 ft 470 kts 274°
2026-05-01 11:14 53.58767 -3.28159 38159 ft 468 kts 274°
2026-05-01 11:14 53.59587 -3.39025 38157 ft 466 kts 274°
2026-05-01 11:15 53.60394 -3.49842 38154 ft 465 kts 274°
2026-05-01 11:15 53.61185 -3.60582 38156 ft 465 kts 274°
2026-05-01 11:16 53.61943 -3.71466 38153 ft 464 kts 272°
2026-05-01 11:16 53.62384 -3.82235 38158 ft 464 kts 270°
2026-05-01 11:17 53.62746 -3.93101 38159 ft 464 kts 270°
2026-05-01 11:17 53.63148 -4.03947 38160 ft 464 kts 270°
2026-05-01 11:18 53.63569 -4.14818 38158 ft 464 kts 270°
2026-05-01 11:18 53.63984 -4.25677 38155 ft 464 kts 270°
2026-05-01 11:19 53.64387 -4.36491 38150 ft 465 kts 270°
2026-05-01 11:19 53.64784 -4.47375 38150 ft 464 kts 270°
2026-05-01 11:20 53.65169 -4.58249 38151 ft 465 kts 270°
2026-05-01 11:20 53.65538 -4.69123 38151 ft 465 kts 270°
2026-05-01 11:21 53.65899 -4.80006 38156 ft 465 kts 270°
2026-05-01 11:21 53.66259 -4.90892 38154 ft 465 kts 270°
2026-05-01 11:22 53.66609 -5.01778 38153 ft 465 kts 269°
2026-05-01 11:22 53.66947 -5.12677 38157 ft 465 kts 269°
2026-05-01 11:23 53.67281 -5.23575 38179 ft 464 kts 269°
2026-05-01 11:23 53.67588 -5.34395 38146 ft 461 kts 269°
2026-05-01 11:24 53.67881 -5.45183 38146 ft 460 kts 268°
2026-05-01 11:25 53.68276 -5.61291 38141 ft 460 kts 268°
2026-05-01 11:25 53.68575 -5.77492 38134 ft 460 kts 267°
2026-05-01 11:26 53.68868 -5.93695 38124 ft 460 kts 267°
2026-05-01 11:27 53.69057 -6.04471 38117 ft 460 kts 267°
2026-05-01 11:27 53.69235 -6.15211 38114 ft 460 kts 267°
2026-05-01 11:28 53.69405 -6.26015 38111 ft 460 kts 267°
2026-05-01 11:28 53.69564 -6.36809 38115 ft 461 kts 266°
2026-05-01 11:29 53.69785 -6.53041 38109 ft 461 kts 266°
2026-05-01 11:30 53.69985 -6.69265 38102 ft 461 kts 266°
2026-05-01 11:30 53.70108 -6.80013 38094 ft 461 kts 266°
2026-05-01 11:31 53.70207 -6.90835 38096 ft 461 kts 266°
2026-05-01 11:31 53.70292 -7.01671 38099 ft 461 kts 266°
2026-05-01 11:32 53.70371 -7.12511 38098 ft 462 kts 266°
2026-05-01 11:32 53.70442 -7.23356 38098 ft 462 kts 266°
2026-05-01 11:33 53.70503 -7.34216 38095 ft 463 kts 266°
2026-05-01 11:33 53.70555 -7.45080 38097 ft 463 kts 265°
2026-05-01 11:34 53.70597 -7.55962 38093 ft 463 kts 265°
2026-05-01 11:34 53.70630 -7.66830 38093 ft 464 kts 265°
2026-05-01 11:35 53.70652 -7.77654 38100 ft 463 kts 265°
2026-05-01 11:35 53.70659 -7.83105 38209 ft 465 kts 265°
2026-05-01 11:35 53.70663 -7.88594 38328 ft 470 kts 265°
2026-05-01 11:35 53.70663 -7.94131 38468 ft 473 kts 265°
2026-05-01 11:36 53.70662 -7.99690 38675 ft 476 kts 266°
2026-05-01 11:36 53.70659 -8.05289 38925 ft 476 kts 266°
2026-05-01 11:36 53.70655 -8.10883 39062 ft 476 kts 266°
2026-05-01 11:37 53.70641 -8.22039 39086 ft 474 kts 266°
2026-05-01 11:37 53.70612 -8.33168 39084 ft 474 kts 266°
2026-05-01 11:38 53.70573 -8.44263 39079 ft 475 kts 266°
2026-05-01 11:38 53.70523 -8.55424 39078 ft 475 kts 266°
2026-05-01 11:39 53.70463 -8.66604 39078 ft 476 kts 266°
2026-05-01 11:39 53.70394 -8.77713 39077 ft 476 kts 266°
2026-05-01 11:40 53.70314 -8.88901 39076 ft 477 kts 266°
2026-05-01 11:40 53.70222 -9.00088 39078 ft 477 kts 266°
2026-05-01 11:41 53.70120 -9.11308 39076 ft 477 kts 266°
2026-05-01 11:41 53.70009 -9.22489 39081 ft 477 kts 266°
2026-05-01 11:42 53.69887 -9.33707 39078 ft 478 kts 266°
2026-05-01 11:42 53.69753 -9.44925 39080 ft 478 kts 266°
2026-05-01 11:43 53.69609 -9.56130 39085 ft 478 kts 266°
2026-05-01 11:43 53.69457 -9.67278 39088 ft 478 kts 266°
2026-05-01 11:44 53.69206 -9.84114 39090 ft 479 kts 266°
2026-05-01 11:44 53.69025 -9.95350 39094 ft 479 kts 266°
2026-05-01 11:45 53.68834 -10.06595 39098 ft 479 kts 266°
2026-05-01 11:45 53.68632 -10.17837 39095 ft 479 kts 266°
2026-05-01 11:46 53.68420 -10.29084 39088 ft 479 kts 266°
2026-05-01 11:46 53.68197 -10.40304 39088 ft 479 kts 266°
2026-05-01 11:47 53.68004 -10.49652 39085 ft 479 kts 266°
2026-05-01 11:47 53.67720 -10.62796 39083 ft 479 kts 266°
2026-05-01 11:48 53.67509 -10.72147 39078 ft 479 kts 265°
2026-05-01 11:48 53.67202 -10.85214 39076 ft 479 kts 265°
2026-05-01 11:49 53.66972 -10.94613 39076 ft 479 kts 265°
2026-05-01 11:49 53.66690 -11.05774 39075 ft 479 kts 265°
2026-05-01 11:50 53.66395 -11.16998 39072 ft 479 kts 265°
2026-05-01 11:50 53.66090 -11.28236 39069 ft 479 kts 265°
2026-05-01 11:51 53.65774 -11.39465 39069 ft 479 kts 265°
2026-05-01 11:51 53.65447 -11.50693 39067 ft 480 kts 265°
2026-05-01 11:52 53.65110 -11.61945 39064 ft 480 kts 265°
2026-05-01 11:52 53.64765 -11.73133 39060 ft 480 kts 265°
2026-05-01 11:53 53.64406 -11.84390 39056 ft 481 kts 265°
2026-05-01 11:53 53.64036 -11.95646 39059 ft 481 kts 265°
2026-05-01 11:54 53.63656 -12.06902 39061 ft 481 kts 265°
2026-05-01 11:54 53.63265 -12.18148 39056 ft 481 kts 265°
2026-05-01 11:55 53.62864 -12.29417 39058 ft 481 kts 265°
2026-05-01 11:55 53.62455 -12.40612 39055 ft 482 kts 265°
2026-05-01 11:56 53.62032 -12.51872 39048 ft 482 kts 265°
2026-05-01 11:56 53.61598 -12.63159 39052 ft 482 kts 265°
2026-05-01 11:57 53.61153 -12.74457 39048 ft 483 kts 265°
2026-05-01 11:57 53.60700 -12.85694 39059 ft 483 kts 265°
2026-05-01 11:58 53.60233 -12.97000 39051 ft 484 kts 265°
2026-05-01 11:59 53.59512 -13.13945 39054 ft 484 kts 265°
2026-05-01 11:59 53.59015 -13.25248 39067 ft 484 kts 265°
2026-05-01 12:00 53.58257 -13.42120 39070 ft 484 kts 264°
2026-05-01 12:01 53.57473 -13.59087 39077 ft 484 kts 264°
2026-05-01 12:01 53.56939 -13.70347 39068 ft 483 kts 264°
2026-05-01 12:02 53.56392 -13.81629 39079 ft 484 kts 264°
2026-05-01 12:02 53.55835 -13.92901 39082 ft 484 kts 264°
2026-05-01 12:03 53.55266 -14.04183 39086 ft 484 kts 264°
2026-05-01 12:03 53.54691 -14.15400 39087 ft 484 kts 264°
2026-05-01 12:04 53.54101 -14.26685 39100 ft 485 kts 264°
2026-05-01 12:04 53.53501 -14.37979 39099 ft 485 kts 264°
2026-05-01 12:05 53.52888 -14.49272 39094 ft 485 kts 264°
2026-05-01 12:05 53.51951 -14.66204 39109 ft 485 kts 264°
2026-05-01 12:06 53.51311 -14.77503 39120 ft 485 kts 264°
2026-05-01 12:06 53.50662 -14.88779 39125 ft 484 kts 264°
2026-05-01 12:07 53.50099 -14.99975 39123 ft 484 kts 270°
2026-05-01 12:07 53.50203 -15.11275 39129 ft 484 kts 271°
2026-05-01 12:08 53.50428 -15.22564 39128 ft 483 kts 272°
2026-05-01 12:08 53.50657 -15.33840 39134 ft 482 kts 272°
2026-05-01 12:09 53.50864 -15.45108 39144 ft 482 kts 272°
2026-05-01 12:09 53.51052 -15.56332 39150 ft 481 kts 272°
2026-05-01 12:10 53.51311 -15.73184 39156 ft 480 kts 272°
2026-05-01 12:11 53.51545 -15.89978 39167 ft 479 kts 272°
2026-05-01 12:11 53.51690 -16.01170 39172 ft 479 kts 272°
2026-05-01 12:12 53.51823 -16.12284 39173 ft 478 kts 272°
2026-05-01 12:12 53.51945 -16.23455 39182 ft 478 kts 272°
2026-05-01 12:13 53.52058 -16.34637 39177 ft 478 kts 272°
2026-05-01 12:13 53.52159 -16.45807 39189 ft 477 kts 272°
2026-05-01 12:14 53.52252 -16.56951 39192 ft 477 kts 272°
2026-05-01 12:14 53.52334 -16.68102 39191 ft 476 kts 272°
2026-05-01 12:15 53.52405 -16.79247 39193 ft 476 kts 272°
2026-05-01 12:15 53.52464 -16.90377 39199 ft 476 kts 272°
2026-05-01 12:16 53.52515 -17.01503 39206 ft 476 kts 272°
2026-05-01 12:16 53.52557 -17.12625 39209 ft 475 kts 272°
2026-05-01 12:17 53.52587 -17.23653 39207 ft 475 kts 272°
2026-05-01 12:17 53.52605 -17.34761 39213 ft 475 kts 272°
2026-05-01 12:18 53.52613 -17.45865 39210 ft 474 kts 272°
2026-05-01 12:18 53.52614 -17.56944 39220 ft 474 kts 272°
2026-05-01 12:19 53.52602 -17.68032 39220 ft 474 kts 272°
2026-05-01 12:19 53.52580 -17.79097 39225 ft 473 kts 272°
2026-05-01 12:20 53.52548 -17.90162 39226 ft 473 kts 272°
2026-05-01 12:20 53.52506 -18.01140 39227 ft 472 kts 271°
2026-05-01 12:21 53.52453 -18.12182 39231 ft 472 kts 271°
2026-05-01 12:21 53.52391 -18.23213 39237 ft 472 kts 271°
2026-05-01 12:22 53.52319 -18.34261 39235 ft 472 kts 271°
2026-05-01 12:22 53.52236 -18.45290 39240 ft 472 kts 271°
2026-05-01 12:23 53.52144 -18.56241 39244 ft 472 kts 271°
2026-05-01 12:23 53.52041 -18.67287 39248 ft 472 kts 271°
2026-05-01 12:24 53.51928 -18.78334 39250 ft 472 kts 271°
2026-05-01 12:24 53.51804 -18.89374 39250 ft 472 kts 271°
2026-05-01 12:25 53.51601 -19.05889 39253 ft 472 kts 271°
2026-05-01 12:26 53.51452 -19.16928 39257 ft 473 kts 271°
2026-05-01 12:26 53.51210 -19.33502 39263 ft 472 kts 270°
2026-05-01 12:27 53.50946 -19.49992 39260 ft 472 kts 270°
2026-05-01 12:28 53.50658 -19.66524 39267 ft 471 kts 270°
2026-05-01 12:29 53.50348 -19.83034 39268 ft 470 kts 270°
2026-05-01 12:29 53.50018 -19.99421 39277 ft 469 kts 270°
2026-05-01 12:30 53.49238 -20.15828 39280 ft 470 kts 266°
2026-05-01 12:31 53.48509 -20.26744 39281 ft 470 kts 266°
2026-05-01 12:31 53.47820 -20.37666 39283 ft 469 kts 266°
2026-05-01 12:32 53.47164 -20.48494 39286 ft 468 kts 266°
2026-05-01 12:32 53.46172 -20.64798 39290 ft 468 kts 266°
2026-05-01 12:33 53.45496 -20.75662 39295 ft 467 kts 266°
2026-05-01 12:33 53.44810 -20.86505 39296 ft 467 kts 266°
2026-05-01 12:34 53.44115 -20.97337 39302 ft 467 kts 266°
2026-05-01 12:34 53.43414 -21.08098 39304 ft 466 kts 266°
2026-05-01 12:35 53.42700 -21.18909 39306 ft 466 kts 266°
2026-05-01 12:35 53.41978 -21.29701 39311 ft 466 kts 266°
2026-05-01 12:36 53.41245 -21.40491 39310 ft 466 kts 266°
2026-05-01 12:36 53.40629 -21.49460 39312 ft 466 kts 266°
2026-05-01 12:37 53.39879 -21.60232 39314 ft 465 kts 266°
2026-05-01 12:37 53.39119 -21.71006 39315 ft 465 kts 266°
2026-05-01 12:38 53.38350 -21.81765 39318 ft 465 kts 265°
2026-05-01 12:38 53.37577 -21.92453 39322 ft 465 kts 265°
2026-05-01 12:39 53.36788 -22.03210 39325 ft 465 kts 265°
2026-05-01 12:39 53.35990 -22.13963 39326 ft 465 kts 265°
2026-05-01 12:40 53.35183 -22.24690 39326 ft 465 kts 265°
2026-05-01 12:40 53.34366 -22.35431 39328 ft 465 kts 265°
2026-05-01 12:41 53.33539 -22.46174 39345 ft 465 kts 265°
2026-05-01 12:41 53.32703 -22.56909 39341 ft 465 kts 265°
2026-05-01 12:42 53.31862 -22.67580 39334 ft 465 kts 265°
2026-05-01 12:42 53.31006 -22.78306 39340 ft 465 kts 265°
2026-05-01 12:43 53.30141 -22.89026 39347 ft 465 kts 265°
2026-05-01 12:43 53.29266 -22.99745 39341 ft 465 kts 265°
2026-05-01 12:44 53.28382 -23.10450 39350 ft 465 kts 265°
2026-05-01 12:45 53.26585 -23.31854 39355 ft 465 kts 264°
2026-05-01 12:45 53.25673 -23.42545 39349 ft 464 kts 264°
2026-05-01 12:46 53.24752 -23.53214 39356 ft 464 kts 264°
2026-05-01 12:46 53.23822 -23.63886 39352 ft 464 kts 264°
2026-05-01 12:47 53.22887 -23.74494 39359 ft 464 kts 264°
2026-05-01 12:47 53.21938 -23.85144 39358 ft 464 kts 264°
2026-05-01 12:48 53.20980 -23.95782 39364 ft 464 kts 264°
2026-05-01 12:48 53.20014 -24.06413 39362 ft 463 kts 264°
2026-05-01 12:49 53.19038 -24.17036 39370 ft 463 kts 264°
2026-05-01 12:49 53.18052 -24.27661 39368 ft 463 kts 264°
2026-05-01 12:50 53.17057 -24.38276 39371 ft 463 kts 264°
2026-05-01 12:50 53.16062 -24.48790 39376 ft 463 kts 264°
2026-05-01 12:51 53.15050 -24.59378 39379 ft 462 kts 264°
2026-05-01 12:52 53.13516 -24.75230 39381 ft 462 kts 264°
2026-05-01 12:52 53.11962 -24.91068 39385 ft 462 kts 264°
2026-05-01 12:53 53.10387 -25.06883 39386 ft 461 kts 263°
2026-05-01 12:54 53.09328 -25.17403 39392 ft 461 kts 263°
2026-05-01 12:54 53.07726 -25.33128 39395 ft 461 kts 263°
2026-05-01 12:55 53.06102 -25.48859 39402 ft 460 kts 263°
2026-05-01 12:56 53.05004 -25.59364 39403 ft 460 kts 263°
2026-05-01 12:56 53.03902 -25.69828 39403 ft 459 kts 263°
2026-05-01 12:57 53.02790 -25.80289 39405 ft 459 kts 263°
2026-05-01 12:57 53.01112 -25.95902 39411 ft 459 kts 263°
2026-05-01 12:58 52.99979 -26.06332 39415 ft 459 kts 263°
2026-05-01 12:59 52.98262 -26.21972 39416 ft 458 kts 263°
2026-05-01 12:59 52.96533 -26.37523 39415 ft 458 kts 263°
2026-05-01 13:00 52.94777 -26.53117 39422 ft 458 kts 263°
2026-05-01 13:01 52.93001 -26.68701 39426 ft 458 kts 263°
2026-05-01 13:02 52.91205 -26.84271 39428 ft 459 kts 263°
2026-05-01 13:07 52.77390 -27.98216 39453 ft 460 kts 262°
2026-05-01 13:08 52.76078 -28.08554 39454 ft 460 kts 262°
2026-05-01 13:08 52.74767 -28.18808 39454 ft 459 kts 262°
2026-05-01 13:09 52.73439 -28.29116 39457 ft 459 kts 262°
2026-05-01 13:09 52.72100 -28.39439 39457 ft 459 kts 262°
2026-05-01 13:10 52.70755 -28.49728 39459 ft 459 kts 262°
2026-05-01 13:10 52.69402 -28.60010 39463 ft 459 kts 262°
2026-05-01 13:11 52.68040 -28.70287 39465 ft 458 kts 262°
2026-05-01 13:11 52.66670 -28.80544 39461 ft 458 kts 262°
2026-05-01 13:12 52.65292 -28.90794 39466 ft 458 kts 261°
2026-05-01 13:12 52.63906 -29.01029 39466 ft 458 kts 261°
2026-05-01 13:13 52.62521 -29.11184 39468 ft 457 kts 261°
2026-05-01 13:13 52.61118 -29.21404 39470 ft 457 kts 261°
2026-05-01 13:14 52.59708 -29.31602 39472 ft 457 kts 261°
2026-05-01 13:14 52.58291 -29.41783 39474 ft 456 kts 261°
2026-05-01 13:15 52.56867 -29.51947 39474 ft 456 kts 261°
2026-05-01 13:15 52.55432 -29.62116 39475 ft 456 kts 261°
2026-05-01 13:16 52.54000 -29.72199 39478 ft 456 kts 261°
2026-05-01 13:16 52.52549 -29.82346 39480 ft 456 kts 260°
2026-05-01 13:17 52.49894 -30.02673 39487 ft 452 kts 266°
2026-05-01 13:18 52.48943 -30.18082 39489 ft 452 kts 268°
2026-05-01 13:18 52.48372 -30.28282 39488 ft 452 kts 268°
2026-05-01 13:19 52.47780 -30.38545 39491 ft 452 kts 268°
2026-05-01 13:20 52.46859 -30.53928 39492 ft 452 kts 267°
2026-05-01 13:20 52.46232 -30.64179 39487 ft 452 kts 267°
2026-05-01 13:21 52.45276 -30.79545 39495 ft 452 kts 267°
2026-05-01 13:21 52.44626 -30.89800 39499 ft 452 kts 267°
2026-05-01 13:22 52.43969 -31.00040 39494 ft 451 kts 266°
2026-05-01 13:22 52.43307 -31.10212 39503 ft 452 kts 266°
2026-05-01 13:23 52.42633 -31.20432 39495 ft 452 kts 266°
2026-05-01 13:23 52.42065 -31.28952 39503 ft 452 kts 266°
2026-05-01 13:24 52.41256 -31.40901 39504 ft 451 kts 266°
2026-05-01 13:25 52.40321 -31.54508 39503 ft 451 kts 266°
2026-05-01 13:25 52.39608 -31.64723 39508 ft 451 kts 265°
2026-05-01 13:26 52.38888 -31.74923 39505 ft 451 kts 265°
2026-05-01 13:26 52.38157 -31.85138 39505 ft 451 kts 265°
2026-05-01 13:27 52.37417 -31.95349 39508 ft 451 kts 265°
2026-05-01 13:27 52.36293 -32.10641 39510 ft 451 kts 265°
2026-05-01 13:28 52.35148 -32.25937 39515 ft 451 kts 264°
2026-05-01 13:29 52.33594 -32.46261 39514 ft 451 kts 264°
2026-05-01 13:31 52.31194 -32.76789 39517 ft 451 kts 264°
2026-05-01 13:32 52.29134 -33.02193 39519 ft 451 kts 263°
2026-05-01 13:33 52.27024 -33.27535 39525 ft 451 kts 263°
2026-05-01 13:34 52.25292 -33.47839 39524 ft 451 kts 263°
2026-05-01 13:35 52.23971 -33.63045 39524 ft 451 kts 262°
2026-05-01 13:36 52.22631 -33.78236 39526 ft 451 kts 262°
2026-05-01 13:36 52.21278 -33.93357 39526 ft 451 kts 262°
2026-05-01 13:37 52.20362 -34.03459 39531 ft 451 kts 262°
2026-05-01 13:37 52.19435 -34.13583 39533 ft 451 kts 262°
2026-05-01 13:38 52.18029 -34.28760 39531 ft 451 kts 261°
2026-05-01 13:39 52.17086 -34.38813 39532 ft 452 kts 261°
2026-05-01 13:39 52.16129 -34.48925 39532 ft 452 kts 261°
2026-05-01 13:40 52.15161 -34.59055 39535 ft 452 kts 261°
2026-05-01 13:40 52.14185 -34.69176 39532 ft 452 kts 261°
2026-05-01 13:41 52.13200 -34.79292 39536 ft 453 kts 261°
2026-05-01 13:41 52.12203 -34.89439 39537 ft 453 kts 260°
2026-05-01 13:42 52.11207 -34.99492 39537 ft 453 kts 260°
2026-05-01 13:42 52.10196 -35.09605 39538 ft 453 kts 260°
2026-05-01 13:43 52.09173 -35.19728 39539 ft 454 kts 260°
2026-05-01 13:43 52.08141 -35.29854 39536 ft 454 kts 259°
2026-05-01 13:44 52.07098 -35.40000 39540 ft 455 kts 259°
2026-05-01 13:44 52.06046 -35.50145 39539 ft 455 kts 259°
2026-05-01 13:45 52.04986 -35.60287 39537 ft 455 kts 259°
2026-05-01 13:45 52.03917 -35.70420 39538 ft 455 kts 259°
2026-05-01 13:46 52.02839 -35.80553 39539 ft 455 kts 259°
2026-05-01 13:46 52.01759 -35.90619 39542 ft 456 kts 259°
2026-05-01 13:47 52.00663 -36.00751 39541 ft 456 kts 258°
2026-05-01 13:47 51.99558 -36.10875 39543 ft 456 kts 258°
2026-05-01 13:48 51.98444 -36.21006 39545 ft 456 kts 258°
2026-05-01 13:48 51.97320 -36.31132 39544 ft 456 kts 258°
2026-05-01 13:49 51.96185 -36.41280 39545 ft 457 kts 258°
2026-05-01 13:49 51.95042 -36.51420 39547 ft 457 kts 258°
2026-05-01 13:50 51.93889 -36.61562 39544 ft 458 kts 258°
2026-05-01 13:50 51.92727 -36.71698 39545 ft 458 kts 258°
2026-05-01 13:51 51.91554 -36.81853 39544 ft 458 kts 257°
2026-05-01 13:51 51.90972 -36.86863 39365 ft 456 kts 257°
2026-05-01 13:51 51.90383 -36.91918 38775 ft 455 kts 257°
2026-05-01 13:51 51.89799 -36.96918 38554 ft 446 kts 257°
2026-05-01 13:52 51.89221 -37.01840 38546 ft 443 kts 257°
2026-05-01 13:52 51.88056 -37.11673 38656 ft 449 kts 257°
2026-05-01 13:52 51.87459 -37.16668 38784 ft 455 kts 257°
2026-05-01 13:53 51.86856 -37.21712 38939 ft 460 kts 257°
2026-05-01 13:53 51.85624 -37.31964 39359 ft 466 kts 257°
2026-05-01 13:53 51.85003 -37.37107 39621 ft 466 kts 257°
2026-05-01 13:54 51.84380 -37.42260 39891 ft 466 kts 257°
2026-05-01 13:54 51.83772 -37.47255 40149 ft 466 kts 257°
2026-05-01 13:54 51.83135 -37.52474 40411 ft 467 kts 257°
2026-05-01 13:54 51.82503 -37.57633 40538 ft 470 kts 257°
2026-05-01 13:55 51.81216 -37.68067 40545 ft 470 kts 257°
2026-05-01 13:55 51.79938 -37.78356 40544 ft 470 kts 257°
2026-05-01 13:56 51.78639 -37.88722 40543 ft 471 kts 256°
2026-05-01 13:56 51.77332 -37.99079 40547 ft 471 kts 256°
2026-05-01 13:57 51.76239 -38.07683 40547 ft 471 kts 256°
2026-05-01 13:57 51.74691 -38.19772 40546 ft 471 kts 256°
2026-05-01 13:58 51.73355 -38.30125 40544 ft 471 kts 256°
2026-05-01 13:58 51.72006 -38.40498 40543 ft 471 kts 256°
2026-05-01 13:59 51.70651 -38.50844 40546 ft 471 kts 256°
2026-05-01 13:59 51.69285 -38.61196 40548 ft 472 kts 256°
2026-05-01 14:00 51.67910 -38.71540 40547 ft 472 kts 256°
2026-05-01 14:00 51.66535 -38.81809 40542 ft 472 kts 255°
2026-05-01 14:01 51.65141 -38.92153 40545 ft 473 kts 255°
2026-05-01 14:01 51.63735 -39.02504 40539 ft 473 kts 255°
2026-05-01 14:02 51.62320 -39.12851 40545 ft 473 kts 255°
2026-05-01 14:02 51.60897 -39.23184 40538 ft 473 kts 255°
2026-05-01 14:03 51.59466 -39.33503 40540 ft 473 kts 255°
2026-05-01 14:03 51.58022 -39.43845 40541 ft 473 kts 255°
2026-05-01 14:04 51.56581 -39.54089 40539 ft 473 kts 255°
2026-05-01 14:04 51.55359 -39.62726 40534 ft 473 kts 255°
2026-05-01 14:05 51.53654 -39.74696 40536 ft 473 kts 255°
2026-05-01 14:05 51.52177 -39.84990 40532 ft 472 kts 255°
2026-05-01 14:06 51.50692 -39.95273 40539 ft 472 kts 255°
2026-05-01 14:06 51.49691 -40.05653 40538 ft 474 kts 262°
2026-05-01 14:07 51.49054 -40.16194 40539 ft 475 kts 263°
2026-05-01 14:08 51.48168 -40.32030 40535 ft 475 kts 263°
2026-05-01 14:08 51.47554 -40.42601 40530 ft 475 kts 263°
2026-05-01 14:09 51.46924 -40.53141 40531 ft 474 kts 263°
2026-05-01 14:09 51.46286 -40.63624 40528 ft 474 kts 263°
2026-05-01 14:10 51.45635 -40.74153 40531 ft 474 kts 263°
2026-05-01 14:10 51.45088 -40.82907 40530 ft 474 kts 263°
2026-05-01 14:11 51.44420 -40.93436 40532 ft 474 kts 262°
2026-05-01 14:11 51.43403 -41.09211 40528 ft 474 kts 262°
2026-05-01 14:12 51.42713 -41.19712 40531 ft 474 kts 262°
2026-05-01 14:12 51.42019 -41.30137 40529 ft 473 kts 262°
2026-05-01 14:13 51.41312 -41.40618 40529 ft 473 kts 262°
2026-05-01 14:13 51.40593 -41.51128 40524 ft 473 kts 262°
2026-05-01 14:14 51.39868 -41.61594 40525 ft 473 kts 262°
2026-05-01 14:14 51.39133 -41.72049 40526 ft 472 kts 262°
2026-05-01 14:15 51.38389 -41.82512 40520 ft 472 kts 262°
2026-05-01 14:15 51.37641 -41.92892 40520 ft 472 kts 262°
2026-05-01 14:16 51.36879 -42.03346 40522 ft 472 kts 262°
2026-05-01 14:16 51.36109 -42.13765 40518 ft 471 kts 262°
2026-05-01 14:17 51.35330 -42.24184 40519 ft 471 kts 262°
2026-05-01 14:17 51.34547 -42.34523 40521 ft 471 kts 262°
2026-05-01 14:18 51.33751 -42.44917 40518 ft 470 kts 262°
2026-05-01 14:18 51.33077 -42.53618 40521 ft 470 kts 262°
2026-05-01 14:19 51.32133 -42.65673 40519 ft 470 kts 262°
2026-05-01 14:19 51.31310 -42.76038 40520 ft 469 kts 261°
2026-05-01 14:20 51.30066 -42.91496 40516 ft 469 kts 261°
2026-05-01 14:21 51.29218 -43.01892 40517 ft 469 kts 261°
2026-05-01 14:21 51.28371 -43.12155 40513 ft 469 kts 261°
2026-05-01 14:22 51.27076 -43.27641 40515 ft 468 kts 261°
2026-05-01 14:22 51.26206 -43.37894 40515 ft 468 kts 261°
2026-05-01 14:23 51.25322 -43.48212 40510 ft 468 kts 261°
2026-05-01 14:23 51.24431 -43.58500 40507 ft 468 kts 261°
2026-05-01 14:24 51.23531 -43.68778 40507 ft 468 kts 261°
2026-05-01 14:24 51.22623 -43.79053 40509 ft 468 kts 261°
2026-05-01 14:25 51.21705 -43.89323 40506 ft 467 kts 261°
2026-05-01 14:25 51.20779 -43.99591 40507 ft 467 kts 261°
2026-05-01 14:26 51.19379 -44.14906 40504 ft 467 kts 260°
2026-05-01 14:27 51.18431 -44.25154 40503 ft 467 kts 260°
2026-05-01 14:27 51.17471 -44.35424 40503 ft 467 kts 260°
2026-05-01 14:28 51.16025 -44.50720 40500 ft 467 kts 260°
2026-05-01 14:28 51.15045 -44.60957 40500 ft 467 kts 260°
2026-05-01 14:29 51.14058 -44.71169 40501 ft 467 kts 260°
2026-05-01 14:30 51.12051 -44.91650 40498 ft 468 kts 260°
2026-05-01 14:31 51.10524 -45.06988 40497 ft 468 kts 259°
2026-05-01 14:31 51.09493 -45.17226 40500 ft 468 kts 259°
2026-05-01 14:32 51.08461 -45.27378 40499 ft 468 kts 259°
2026-05-01 14:32 51.07414 -45.37583 40489 ft 468 kts 259°
2026-05-01 14:33 51.06356 -45.47799 40493 ft 468 kts 259°
2026-05-01 14:33 51.05290 -45.58012 40493 ft 468 kts 259°
2026-05-01 14:34 51.04216 -45.68212 40494 ft 468 kts 259°
2026-05-01 14:34 51.03132 -45.78414 40490 ft 468 kts 259°
2026-05-01 14:35 51.02039 -45.88614 40490 ft 468 kts 259°
2026-05-01 14:35 51.00936 -45.98813 40490 ft 468 kts 259°
2026-05-01 14:36 50.99825 -46.09005 40486 ft 468 kts 259°
2026-05-01 14:36 50.98707 -46.19174 40490 ft 468 kts 259°
2026-05-01 14:37 50.97579 -46.29353 40484 ft 468 kts 259°
2026-05-01 14:37 50.96442 -46.39520 40489 ft 468 kts 259°
2026-05-01 14:38 50.95299 -46.49667 40486 ft 467 kts 258°
2026-05-01 14:38 50.94146 -46.59815 40485 ft 467 kts 258°
2026-05-01 14:39 50.92986 -46.69937 40487 ft 467 kts 258°
2026-05-01 14:39 50.91817 -46.80063 40490 ft 467 kts 258°
2026-05-01 14:40 50.90639 -46.90181 40480 ft 467 kts 258°
2026-05-01 14:40 50.89452 -47.00297 40484 ft 467 kts 258°
2026-05-01 14:41 50.88258 -47.10396 40481 ft 466 kts 258°
2026-05-01 14:41 50.87055 -47.20494 40479 ft 466 kts 258°
2026-05-01 14:42 50.85844 -47.30578 40479 ft 466 kts 258°
2026-05-01 14:42 50.84626 -47.40641 40478 ft 466 kts 258°
2026-05-01 14:43 50.83399 -47.50705 40476 ft 466 kts 258°
2026-05-01 14:43 50.82173 -47.60684 40477 ft 466 kts 258°
2026-05-01 14:44 50.80929 -47.70736 40473 ft 465 kts 258°
2026-05-01 14:44 50.79049 -47.85781 40470 ft 465 kts 258°
2026-05-01 14:45 50.77151 -48.00807 40471 ft 465 kts 257°
2026-05-01 14:46 50.75874 -48.10822 40471 ft 465 kts 257°
2026-05-01 14:46 50.73942 -48.25841 40468 ft 465 kts 257°
2026-05-01 14:47 50.72647 -48.35821 40467 ft 465 kts 257°
2026-05-01 14:48 50.70687 -48.50792 40465 ft 464 kts 257°
2026-05-01 14:48 50.68706 -48.65758 40459 ft 464 kts 257°
2026-05-01 14:49 50.66037 -48.85680 40458 ft 464 kts 257°
2026-05-01 14:50 50.63345 -49.05498 40452 ft 464 kts 256°
2026-05-01 14:51 50.61301 -49.20384 40448 ft 464 kts 256°
2026-05-01 14:52 50.59234 -49.35262 40445 ft 464 kts 256°
2026-05-01 14:53 50.57150 -49.50123 40448 ft 463 kts 256°
2026-05-01 14:53 50.55752 -49.60011 40439 ft 463 kts 256°
2026-05-01 14:54 50.54346 -49.69890 40440 ft 463 kts 256°
2026-05-01 14:54 50.52931 -49.79770 40440 ft 463 kts 256°
2026-05-01 14:55 50.51507 -49.89644 40439 ft 463 kts 256°
2026-05-01 14:55 50.50008 -49.99486 40437 ft 463 kts 251°
2026-05-01 14:56 50.47873 -50.09011 40429 ft 462 kts 249°
2026-05-01 14:56 50.45603 -50.18455 40430 ft 462 kts 248°
2026-05-01 14:57 50.43309 -50.27875 40427 ft 462 kts 248°
2026-05-01 14:57 50.39869 -50.42003 40426 ft 462 kts 248°
2026-05-01 14:58 50.37572 -50.51413 40418 ft 462 kts 248°
2026-05-01 14:58 50.35266 -50.60826 40424 ft 463 kts 248°
2026-05-01 14:59 50.32955 -50.70220 40418 ft 462 kts 248°
2026-05-01 14:59 50.31028 -50.78019 40419 ft 463 kts 248°
2026-05-01 15:00 50.27536 -50.92085 40415 ft 462 kts 248°
2026-05-01 15:01 50.25198 -51.01453 40415 ft 462 kts 248°
2026-05-01 15:01 50.22855 -51.10800 40412 ft 462 kts 248°
2026-05-01 15:02 50.20500 -51.20153 40414 ft 462 kts 248°
2026-05-01 15:02 50.18158 -51.29423 40408 ft 462 kts 248°
2026-05-01 15:03 50.15790 -51.38751 40399 ft 462 kts 248°
2026-05-01 15:03 50.13413 -51.48078 40398 ft 462 kts 248°
2026-05-01 15:04 50.11033 -51.57377 40399 ft 462 kts 248°
2026-05-01 15:04 50.08645 -51.66674 40395 ft 462 kts 248°
2026-05-01 15:05 50.06254 -51.75940 40390 ft 462 kts 247°
2026-05-01 15:05 50.03853 -51.85206 40390 ft 461 kts 247°
2026-05-01 15:06 50.01447 -51.94459 40391 ft 461 kts 247°
2026-05-01 15:06 49.99045 -52.03632 40390 ft 461 kts 246°
2026-05-01 15:07 49.96535 -52.12791 40372 ft 460 kts 246°
2026-05-01 15:07 49.93991 -52.21921 40374 ft 460 kts 246°
2026-05-01 15:08 49.91454 -52.31046 40383 ft 460 kts 246°
2026-05-01 15:08 49.88923 -52.40151 40380 ft 459 kts 246°
2026-05-01 15:09 49.86413 -52.49163 40382 ft 459 kts 245°
2026-05-01 15:09 49.83872 -52.58246 40375 ft 459 kts 245°
2026-05-01 15:10 49.81333 -52.67291 40378 ft 458 kts 245°
2026-05-01 15:10 49.77508 -52.80844 40362 ft 457 kts 245°
2026-05-01 15:11 49.73675 -52.94347 40358 ft 457 kts 245°
2026-05-01 15:12 49.71117 -53.03319 40356 ft 456 kts 245°
2026-05-01 15:12 49.67263 -53.16771 40357 ft 456 kts 245°
2026-05-01 15:14 49.60840 -53.39020 40349 ft 455 kts 245°
2026-05-01 15:14 49.56964 -53.52354 40347 ft 454 kts 245°
2026-05-01 15:15 49.51771 -53.70097 40345 ft 454 kts 245°
2026-05-01 15:16 49.46562 -53.87765 40337 ft 453 kts 244°
2026-05-01 15:18 49.40042 -54.09704 40332 ft 452 kts 244°
2026-05-01 15:19 49.34791 -54.27226 40327 ft 451 kts 244°
2026-05-01 15:19 49.30843 -54.40314 40319 ft 451 kts 244°
2026-05-01 15:20 49.26880 -54.53388 40307 ft 451 kts 244°
2026-05-01 15:21 49.24251 -54.62022 40306 ft 450 kts 244°
2026-05-01 15:21 49.21596 -54.70712 40298 ft 450 kts 244°
2026-05-01 15:22 49.17601 -54.83726 40293 ft 450 kts 244°
2026-05-01 15:22 49.14935 -54.92375 40298 ft 450 kts 244°
2026-05-01 15:23 49.12261 -55.01023 40294 ft 450 kts 243°
2026-05-01 15:23 49.09580 -55.09657 40292 ft 449 kts 243°
2026-05-01 15:24 49.06895 -55.18273 40287 ft 449 kts 243°
2026-05-01 15:24 49.04227 -55.26811 40287 ft 450 kts 243°
2026-05-01 15:25 49.01531 -55.35405 40282 ft 450 kts 243°
2026-05-01 15:25 48.98825 -55.44006 40280 ft 450 kts 243°
2026-05-01 15:26 48.96113 -55.52591 40276 ft 450 kts 243°
2026-05-01 15:26 48.93394 -55.61169 40275 ft 450 kts 243°
2026-05-01 15:27 48.90669 -55.69737 40270 ft 450 kts 243°
2026-05-01 15:28 48.86576 -55.82554 40260 ft 449 kts 243°
2026-05-01 15:28 48.83840 -55.91086 40256 ft 449 kts 243°
2026-05-01 15:29 48.79745 -56.03801 40251 ft 449 kts 243°
2026-05-01 15:30 48.74235 -56.20808 40243 ft 448 kts 243°
2026-05-01 15:31 48.65969 -56.46107 40237 ft 447 kts 243°
2026-05-01 15:32 48.60420 -56.62951 40227 ft 447 kts 242°
2026-05-01 15:34 48.52066 -56.88101 40221 ft 446 kts 242°